Weather History for Santa Maria, CA

Change the Weather History Date:

Tuesday, May 7, 2013

  Actual Average Record
Temperature  
Mean Temperature 63 °F 57 °F  
Max Temperature 74 °F 68 °F 93 °F (2007)
Min Temperature 52 °F 46 °F 34 °F (1950)
Degree Days  
Heating Degree Days 2 8  
Month to date heating degree days 11 56  
Since 1 July heating degree days 2186 2515  
Cooling Degree Days 0 0  
Month to date cooling degree days 7 0  
Year to date cooling degree days 9 6  
Growing Degree Days 14 (Base 50)    
Moisture  
Dew Point 49 °F    
Average Humidity 64    
Maximum Humidity 89    
Minimum Humidity 38    
Precipitation  
Precipitation T in 0.02 in 0.52 in (1928)
Month to date precipitation 0.04 0.12  
Year to date precipitation 2.49 9.48  
Since 1 July precipitation 6.22 13.72  
Sea Level Pressure  
Sea Level Pressure 30.02 in    
Wind  
Wind Speed 5 mph (West)    
Max Wind Speed 20 mph    
Max Gust Speed 25 mph    
Visibility 10 miles    
Events      
T = Trace of Precipitation, MM = Missing Value Source: NWS Daily Summary

Daily Weather History Graph

Daily Weather History Graph

Search for Another Location

Airport:

Trip Planner

Search our weather history database for the weather conditions in past years. The results will help you decide how hot, cold, wet, or windy it might be!

Date:

Astronomy

May. 07, 2013 Rise Set
Actual Time 6:04 AM PDT 7:52 PM PDT
Civil Twilight 5:37 AM PDT 8:19 PM PDT
Nautical Twilight 5:04 AM PDT 8:53 PM PDT
Astronomical Twilight 4:29 AM PDT 9:28 PM PDT
Moon 4:36 AM PDT (5/7) 6:00 PM PDT (5/7)
Length of Visible Light 14h 42m
Length of Day
13h 47m
Waning Crescent, 5% of the Moon is Illuminated
May 7
Waning Crescent
May 9
New
May 17
First Quarter
May 24
Full
May 31
Last Quarter

Hourly Weather History & Observations

Time (PDT) Temp. Dew Point Humidity Pressure Visibility Wind Dir Wind Speed Gust Speed Precip Events Conditions
12:51 AM 61.0 °F 48.0 °F 62% 30.01 in 10.0 mi SSE 6.9 mph - N/A   Overcast
1:51 AM 60.1 °F 48.9 °F 67% 30.00 in 10.0 mi Calm Calm - N/A   Overcast
2:51 AM 59.0 °F 50.0 °F 72% 30.00 in 10.0 mi Calm Calm - 0.00 in   Overcast
3:51 AM 60.1 °F 48.9 °F 67% 29.99 in 10.0 mi SE 5.8 mph - N/A   Overcast
4:51 AM 59.0 °F 48.9 °F 69% 29.99 in 10.0 mi South 5.8 mph - N/A   Overcast
5:51 AM 59.0 °F 48.9 °F 69% 29.99 in 10.0 mi Calm Calm - N/A   Mostly Cloudy
6:51 AM 57.9 °F 48.9 °F 72% 30.00 in 10.0 mi Calm Calm - N/A   Partly Cloudy
7:51 AM 62.1 °F 48.9 °F 62% 30.01 in 10.0 mi East 4.6 mph - N/A   Scattered Clouds
8:51 AM 64.9 °F 48.0 °F 54% 30.03 in 10.0 mi Variable 3.5 mph - N/A   Mostly Cloudy
9:51 AM 64.9 °F 48.0 °F 54% 30.03 in 10.0 mi Variable 3.5 mph - N/A   Mostly Cloudy
10:51 AM 64.0 °F 50.0 °F 60% 30.05 in 9.0 mi West 9.2 mph - N/A   Overcast
11:51 AM 66.0 °F 51.1 °F 59% 30.06 in 10.0 mi WNW 8.1 mph - N/A   Overcast
12:51 PM 69.1 °F 50.0 °F 51% 30.05 in 10.0 mi North 9.2 mph - N/A   Mostly Cloudy
1:51 PM 71.1 °F 48.0 °F 44% 30.03 in 10.0 mi Variable 3.5 mph - N/A   Scattered Clouds
2:51 PM 73.9 °F 46.9 °F 38% 30.01 in 10.0 mi NW 9.2 mph - N/A   Scattered Clouds
3:51 PM 73.0 °F 46.9 °F 39% 29.99 in 10.0 mi WNW 12.7 mph - N/A   Scattered Clouds
4:51 PM 70.0 °F 46.0 °F 42% 29.99 in 10.0 mi SW 11.5 mph 20.7 mph N/A   Partly Cloudy
5:51 PM 68.0 °F 48.0 °F 49% 30.01 in 10.0 mi SW 9.2 mph - N/A   Partly Cloudy
6:51 PM 64.9 °F 48.9 °F 56% 30.03 in 10.0 mi NW 10.4 mph - N/A   Scattered Clouds
7:51 PM 60.1 °F 52.0 °F 75% 30.04 in 9.0 mi NW 4.6 mph - N/A   Clear
8:51 PM 57.9 °F 52.0 °F 81% 30.05 in 9.0 mi NNW 3.5 mph - N/A   Clear
9:51 PM 57.0 °F 52.0 °F 83% 30.06 in 9.0 mi Calm Calm - N/A   Clear
10:51 PM 55.9 °F 51.1 °F 84% 30.08 in 9.0 mi South 3.5 mph - N/A   Partly Cloudy
11:51 PM 54.0 °F 50.0 °F 86% 30.09 in 9.0 mi Calm Calm - N/A   Overcast